TimeCDT,TemperatureF,Dew PointF,Humidity,Sea Level PressureIn,VisibilityMPH,Wind Direction,Wind SpeedMPH,Gust SpeedMPH,PrecipitationIn,Events,Conditions,WindDirDegrees,DateUTC
12:15 AM,5.0,1.4,85,29.93,7.0,NW,19.6,25.3,N/A,,Clear,310,2013-03-19 05:15:00
12:35 AM,5.0,1.4,85,29.92,7.0,NW,19.6,25.3,N/A,,Clear,320,2013-03-19 05:35:00
12:55 AM,5.0,1.4,85,29.92,10.0,NW,19.6,-,N/A,,Clear,310,2013-03-19 05:55:00
1:15 AM,5.0,-0.4,78,29.92,10.0,NW,20.7,-,N/A,,Clear,310,2013-03-19 06:15:00
1:35 AM,3.2,-0.4,85,29.92,10.0,NW,18.4,-,N/A,,Clear,310,2013-03-19 06:35:00
1:55 AM,3.2,-0.4,85,29.93,10.0,NW,17.3,-,N/A,,Clear,310,2013-03-19 06:55:00
2:15 AM,3.2,-0.4,85,29.95,10.0,WNW,16.1,-,N/A,,Clear,300,2013-03-19 07:15:00
2:35 AM,1.4,-4.0,78,29.95,10.0,WNW,11.5,-,N/A,,Clear,300,2013-03-19 07:35:00
2:55 AM,-0.4,-4.0,85,29.96,10.0,WNW,12.7,-,N/A,,Clear,290,2013-03-19 07:55:00
3:15 AM,-0.4,-4.0,85,29.97,10.0,WNW,15.0,-,N/A,,Clear,300,2013-03-19 08:15:00
3:35 AM,-0.4,-4.0,85,29.97,10.0,WNW,13.8,-,N/A,,Clear,300,2013-03-19 08:35:00
3:55 AM,-0.4,-4.0,85,29.97,10.0,NW,16.1,-,N/A,,Clear,310,2013-03-19 08:55:00
4:15 AM,-0.4,-4.0,85,29.98,10.0,NW,13.8,-,N/A,,Clear,310,2013-03-19 09:15:00
4:35 AM,-0.4,-5.8,78,29.98,10.0,NW,12.7,-,N/A,,Clear,310,2013-03-19 09:35:00
4:55 AM,-0.4,-5.8,78,29.98,10.0,NW,13.8,-,N/A,,Clear,310,2013-03-19 09:55:00
5:15 AM,-2.2,-5.8,85,29.99,10.0,NW,11.5,-,N/A,,Clear,310,2013-03-19 10:15:00
5:35 AM,-2.2,-7.6,78,29.99,10.0,NW,11.5,-,N/A,,Clear,320,2013-03-19 10:35:00
5:55 AM,-2.2,-7.6,78,30.00,10.0,NW,12.7,-,N/A,,Clear,320,2013-03-19 10:55:00
6:15 AM,-4.0,-7.6,85,30.01,10.0,NW,10.4,-,N/A,,Clear,320,2013-03-19 11:15:00
6:55 AM,-4.0,-7.6,85,30.03,10.0,NW,11.5,-,N/A,,Clear,310,2013-03-19 11:55:00
7:15 AM,-4.0,-9.4,78,30.04,10.0,NW,9.2,-,N/A,,Clear,310,2013-03-19 12:15:00
7:35 AM,-7.6,-11.2,84,30.05,10.0,WNW,6.9,-,N/A,,Clear,290,2013-03-19 12:35:00
7:55 AM,-7.6,-11.2,84,30.05,10.0,WNW,5.8,-,N/A,,Clear,300,2013-03-19 12:55:00
8:15 AM,-5.8,-9.4,84,30.07,10.0,WNW,8.1,-,N/A,,Clear,300,2013-03-19 13:15:00
8:35 AM,-4.0,-9.4,78,30.07,10.0,NW,10.4,-,N/A,,Clear,310,2013-03-19 13:35:00
8:55 AM,-4.0,-9.4,78,30.08,10.0,NW,11.5,-,N/A,,Clear,320,2013-03-19 13:55:00
9:15 AM,-2.2,-7.6,78,30.10,10.0,NW,10.4,-,N/A,,Clear,320,2013-03-19 14:15:00
9:35 AM,-0.4,-7.6,72,30.10,10.0,NW,12.7,-,N/A,,Clear,320,2013-03-19 14:35:00
9:55 AM,1.4,-5.8,72,30.11,10.0,NW,13.8,-,N/A,,Clear,320,2013-03-19 14:55:00
10:15 AM,1.4,-5.8,72,30.11,10.0,NW,9.2,-,N/A,,Clear,320,2013-03-19 15:15:00
10:35 AM,1.4,-5.8,72,30.11,10.0,NW,10.4,-,N/A,,Scattered Clouds,310,2013-03-19 15:35:00
10:55 AM,1.4,-5.8,72,30.13,10.0,NW,9.2,-,N/A,,Scattered Clouds,310,2013-03-19 15:55:00
11:15 AM,3.2,-4.0,72,30.13,10.0,WNW,9.2,-,N/A,,Clear,300,2013-03-19 16:15:00
11:35 AM,3.2,-4.0,72,30.13,10.0,NW,11.5,-,N/A,,Scattered Clouds,310,2013-03-19 16:35:00
11:55 AM,5.0,-4.0,66,30.13,10.0,NW,13.8,-,N/A,,Clear,310,2013-03-19 16:55:00
12:15 PM,5.0,-2.2,72,30.13,10.0,NW,12.7,-,N/A,,Clear,320,2013-03-19 17:15:00
12:35 PM,6.8,-2.2,67,30.14,10.0,NW,16.1,-,N/A,,Clear,320,2013-03-19 17:35:00
12:55 PM,8.6,-0.4,67,30.15,10.0,NW,16.1,-,N/A,,Clear,320,2013-03-19 17:55:00
1:15 PM,8.6,-0.4,67,30.16,10.0,NW,16.1,-,N/A,,Clear,320,2013-03-19 18:15:00
1:35 PM,8.6,-0.4,67,30.16,10.0,NNW,17.3,23.0,N/A,,Mostly Cloudy,330,2013-03-19 18:35:00
1:55 PM,10.4,-0.4,62,30.16,10.0,NW,18.4,-,N/A,,Overcast,320,2013-03-19 18:55:00
2:15 PM,10.4,-0.4,62,30.16,10.0,NW,15.0,-,N/A,,Mostly Cloudy,320,2013-03-19 19:15:00
2:35 PM,10.4,1.4,67,30.17,10.0,NW,18.4,-,N/A,,Scattered Clouds,310,2013-03-19 19:35:00
2:55 PM,10.4,1.4,67,30.17,10.0,NW,17.3,23.0,N/A,,Clear,310,2013-03-19 19:55:00
3:15 PM,10.4,1.4,67,30.17,10.0,NW,18.4,-,N/A,,Clear,310,2013-03-19 20:15:00
3:35 PM,10.4,3.2,73,30.18,10.0,NW,18.4,-,N/A,,Clear,310,2013-03-19 20:35:00
3:55 PM,10.4,1.4,67,30.18,10.0,NW,18.4,-,N/A,,Clear,310,2013-03-19 20:55:00
4:15 PM,10.4,1.4,67,30.19,10.0,NW,15.0,-,N/A,,Clear,310,2013-03-19 21:15:00
4:35 PM,12.2,1.4,62,30.20,10.0,NW,21.9,-,N/A,,Clear,310,2013-03-19 21:35:00
4:55 PM,12.2,1.4,62,30.20,10.0,NW,19.6,24.2,N/A,,Clear,320,2013-03-19 21:55:00
5:15 PM,12.2,3.2,67,30.21,10.0,NW,18.4,-,N/A,,Clear,320,2013-03-19 22:15:00
5:35 PM,12.2,3.2,67,30.21,10.0,NW,19.6,26.5,N/A,,Clear,320,2013-03-19 22:35:00
5:55 PM,12.2,3.2,67,30.22,10.0,NW,17.3,21.9,N/A,,Clear,320,2013-03-19 22:55:00
6:15 PM,10.4,1.4,67,30.23,10.0,NW,17.3,-,N/A,,Clear,320,2013-03-19 23:15:00
6:35 PM,10.4,3.2,73,30.24,10.0,NW,16.1,-,N/A,,Clear,310,2013-03-19 23:35:00
6:55 PM,10.4,3.2,73,30.24,10.0,NW,15.0,-,N/A,,Clear,320,2013-03-19 23:55:00
7:15 PM,10.4,3.2,73,30.24,10.0,NW,13.8,-,N/A,,Clear,310,2013-03-20 00:15:00
7:35 PM,8.6,3.2,79,30.25,10.0,NW,15.0,-,N/A,,Clear,310,2013-03-20 00:35:00
7:55 PM,8.6,3.2,79,30.25,10.0,NW,15.0,-,N/A,,Clear,310,2013-03-20 00:55:00
8:15 PM,8.6,3.2,79,30.25,10.0,NW,12.7,-,N/A,,Clear,310,2013-03-20 01:15:00
8:55 PM,8.6,3.2,79,30.26,10.0,NW,13.8,-,N/A,,Clear,310,2013-03-20 01:55:00
9:15 PM,6.8,3.2,85,30.26,10.0,NW,13.8,-,N/A,,Clear,310,2013-03-20 02:15:00
9:35 PM,5.0,1.4,85,30.27,10.0,NW,12.7,-,N/A,,Clear,310,2013-03-20 02:35:00
10:15 PM,3.2,-0.4,85,30.27,10.0,NW,10.4,-,N/A,,Clear,310,2013-03-20 03:15:00
10:35 PM,3.2,-0.4,85,30.27,10.0,NW,9.2,-,N/A,,Clear,310,2013-03-20 03:35:00
10:55 PM,3.2,-0.4,85,30.28,10.0,NW,9.2,-,N/A,,Clear,310,2013-03-20 03:55:00
11:15 PM,3.2,-0.4,85,30.27,10.0,NW,13.8,-,N/A,,Clear,310,2013-03-20 04:15:00
11:35 PM,1.4,-0.4,92,30.27,10.0,NW,12.7,-,N/A,,Clear,310,2013-03-20 04:35:00
11:55 PM,1.4,-2.2,85,30.27,10.0,NW,12.7,-,N/A,,Clear,320,2013-03-20 04:55:00